Home > Weather > Stans > Past weeks

Flag for Switzerland Past Weather in Stans, Nidwalden, Switzerland — Yesterday and Last 2 Weeks

Now
65 °F

Mild.


Feels Like: 65 °F
Forecast: 59 / 76 °F
Wind: 1 mph from Northwest

Location: Giswil

Current Time: Jul 26, 2016 at 8:34:23 AM

Latest Report: Jul 26, 2016 at 7:00 AM


Visibility: N/A

Pressure: 30.11 "Hg

Humidity: 99%

Dew Point: 65 °F

Location of StansLocation

Past Weather in Stans — Graph

°F

Stans Temperature Yesterday

Maximum temperature yesterday: 76 °F (at 6:00 PM)
Minimum temperature yesterday: 62 °F (at 5:00 AM)
Average temperature yesterday: 69 °F

High & Low Weather Summary for the Past Weeks

 TemperatureHumidityPressure
High88 °F (Jul 20, 5:00 PM)100% (Jul 16, 5:00 AM)30.39 "Hg (Jul 16, 5:00 AM)
Low44 °F (Jul 16, 6:00 AM)38% (Jul 20, 4:00 PM)29.85 "Hg (Jul 11, 2:00 PM)
Average65 °F81%30.10 "Hg
* Reported Jul 11 7:00 AM — Jul 26 7:00 AM, Stans, Weather by CustomWeather, © 2016

Note: Actual official high and low records may vary slightly from our data, if they occured in-between our weather recording intervals... More about our weather records

Advertising

Stans Weather History for the Previous 24 Hours

Scroll right to see more
 ConditionsComfort  
Time TempWeatherWind HumidityBarometerVisibility
7:00 AM
Tue, Jul 26
65 °FMild.1 mph99%30.11 "HgN/A
6:00 AM65 °FMild.1 mph99%30.11 "HgN/A
5:00 AM66 °FMild.No wind99%30.11 "HgN/A
4:00 AM66 °FMild.3 mph98%30.12 "HgN/A
3:00 AM67 °FMild.3 mph94%30.12 "HgN/A
2:00 AM68 °FMild.5 mph87%30.11 "HgN/A
1:00 AM66 °FMild.No wind95%30.12 "HgN/A
12:00 AM68 °FMild.1 mph88%30.11 "HgN/A
11:00 PM
Mon, Jul 25
67 °FMild.2 mph92%30.12 "HgN/A
10:00 PM67 °FMild.1 mph90%30.11 "HgN/A
9:00 PM70 °FMild.2 mph81%30.09 "HgN/A
8:00 PM72 °FMild.1 mph82%30.08 "HgN/A
7:00 PM74 °FMild.2 mph75%30.06 "HgN/A
6:00 PM76 °FMild.1 mph66%30.05 "HgN/A
5:00 PM75 °FMild.1 mph67%30.05 "HgN/A
4:00 PM76 °FMild.2 mph62%30.06 "HgN/A
3:00 PM73 °FMild.1 mph66%30.08 "HgN/A
2:00 PM73 °FMild.No wind73%30.08 "HgN/A
1:00 PM72 °FMild.2 mph74%30.09 "HgN/A
12:00 PM71 °FMild.3 mph75%30.09 "HgN/A
11:00 AM71 °FMild.2 mph79%30.10 "HgN/A
10:00 AM69 °FMild.2 mph83%30.11 "HgN/A
9:00 AM66 °FMild.No wind92%30.12 "HgN/A
8:00 AM64 °FMild.No wind98%30.12 "HgN/A
Weather by CustomWeather, © 2016

See weather overviewHow to use our weather pages